Weather History for Baker, OR

Change the Weather History Date:

Wednesday, February 6, 2013

  Actual Average Record
Temperature  
Mean Temperature 34 °F 27 °F  
Max Temperature 44 °F 37 °F 57 °F (1963)
Min Temperature 23 °F 18 °F -25 °F (1989)
Degree Days  
Heating Degree Days 31 38  
Month to date heating degree days 202 228  
Since 1 July heating degree days 4655 4751  
Cooling Degree Days 0 0  
Month to date cooling degree days 0 0  
Year to date cooling degree days 0 0  
Moisture  
Dew Point 26 °F    
Average Humidity 71    
Maximum Humidity 92    
Minimum Humidity 49    
Precipitation  
Precipitation 0.00 in 0.02 in 0.78 in (1966)
Month to date precipitation T 0.13  
Year to date precipitation 0.84 0.93  
Sea Level Pressure  
Sea Level Pressure 30.11 in    
Wind  
Wind Speed 8 mph (SE)    
Max Wind Speed 20 mph    
Max Gust Speed 23 mph    
Visibility 9 miles    
Events      
T = Trace of Precipitation, MM = Missing Value Source: NWS Daily Summary

Daily Weather History Graph

Daily Weather History Graph

Search for Another Location

Airport:

Trip Planner

Search our weather history database for the weather conditions in past years. The results will help you decide how hot, cold, wet, or windy it might be!

Date:

Astronomy

Feb. 06, 2013 Rise Set
Actual Time 7:04 AM PST 5:07 PM PST
Civil Twilight 6:33 AM PST 5:37 PM PST
Nautical Twilight 5:58 AM PST 6:12 PM PST
Astronomical Twilight 5:24 AM PST 6:46 PM PST
Moon 3:57 AM PST (2/6) 1:25 PM PST (2/6)
Length of Visible Light 11h 04m
Length of Day
10h 03m
Waning Crescent, 16% of the Moon is Illuminated
Feb 6
Waning Crescent
Feb 9
New
Feb 17
First Quarter
Feb 25
Full
Mar 4
Last Quarter

Hourly Weather History & Observations

Time (PST) Temp. Windchill Dew Point Humidity Pressure Visibility Wind Dir Wind Speed Gust Speed Precip Events Conditions
12:53 AM 26.1 °F 18.4 °F 24.1 °F 92% 30.07 in 7.0 mi SW 6.9 mph - N/A   Mostly Cloudy
1:53 AM 24.1 °F 19.7 °F 23.0 °F 96% 30.08 in 9.0 mi NE 3.5 mph - N/A   Overcast
2:48 AM 26.6 °F 21.2 °F 24.8 °F 93% 30.03 in 7.0 mi WNW 4.6 mph - N/A   Overcast
2:53 AM 28.0 °F 22.8 °F 26.1 °F 92% 30.10 in 7.0 mi WSW 4.6 mph - N/A   Overcast
3:53 AM 26.1 °F - 24.1 °F 92% 30.11 in 9.0 mi Calm Calm - N/A   Mostly Cloudy
4:53 AM 26.1 °F - 25.0 °F 96% 30.12 in 8.0 mi Calm Calm - N/A   Clear
5:53 AM 24.1 °F 19.7 °F 23.0 °F 96% 30.13 in 7.0 mi Variable 3.5 mph - N/A   Scattered Clouds
6:53 AM 24.8 °F 19.1 °F 23.0 °F 93% 30.07 in 10.0 mi South 4.6 mph - N/A   Mostly Cloudy
7:53 AM 27.0 °F 19.5 °F 24.1 °F 89% 30.17 in 6.0 mi NNE 6.9 mph - N/A   Scattered Clouds
8:53 AM 35.1 °F 31.0 °F 30.9 °F 85% 30.16 in 10.0 mi NNW 4.6 mph - N/A   Clear
9:53 AM 33.1 °F 30.0 °F 30.0 °F 89% 30.17 in 10.0 mi West 3.5 mph - N/A   Partly Cloudy
10:53 AM 37.9 °F - 30.9 °F 76% 30.16 in 10.0 mi Calm Calm - N/A   Clear
11:53 AM 39.0 °F 33.4 °F 32.0 °F 76% 30.15 in 10.0 mi SW 8.1 mph - N/A   Clear
12:53 PM 37.0 °F 34.5 °F 30.9 °F 79% 30.14 in 10.0 mi SW 3.5 mph - N/A   Clear
1:53 PM 43.0 °F 36.4 °F 28.9 °F 58% 30.12 in 10.0 mi SSE 12.7 mph 18.4 mph N/A   Partly Cloudy
2:53 PM 42.1 °F 33.9 °F 24.1 °F 49% 30.10 in 10.0 mi SE 17.3 mph - N/A   Clear
3:53 PM 37.9 °F 29.2 °F 27.0 °F 65% 30.11 in 10.0 mi ESE 15.0 mph - N/A   Clear
4:53 PM 34.0 °F 26.0 °F 26.1 °F 73% 30.12 in 10.0 mi ESE 10.4 mph - N/A   Clear
5:53 PM 32.0 °F 22.5 °F 25.0 °F 75% 30.12 in 10.0 mi East 12.7 mph - N/A   Clear
6:53 PM 30.9 °F 21.2 °F 25.0 °F 79% 30.12 in 10.0 mi ESE 12.7 mph - N/A   Clear
7:53 PM 30.2 °F 20.2 °F 24.8 °F 80% 30.03 in 10.0 mi East 12.7 mph - N/A   Partly Cloudy
8:53 PM 32.0 °F 23.0 °F 26.1 °F 79% 30.09 in 10.0 mi East 11.5 mph - N/A   Clear
10:53 PM 30.9 °F 22.8 °F 26.1 °F 82% 30.07 in 10.0 mi East 9.2 mph - N/A   Clear
11:53 PM 32.0 °F 24.8 °F 25.0 °F 75% 30.06 in 10.0 mi East 8.1 mph - N/A   Clear